Retour au catalogue

NOAA 14

ActifMétéoSSO
NORAD 23455·PAYLOAD·🇺🇸 United States

Lancé Dec 30, 1994 depuis Vandenberg Space Force Base

Loading…

Prochains Passages (prochaines 24 heures)

TLE

FraisSource: Space-Track

Époque: Sep 14, 2026, 14:17 UTC

1 23455U 94089A   26257.59558768  .00000020  00000-0  31908-4 0  9991
2 23455  98.5242 223.0954 0009302 180.2557 179.8614 14.14685015635845

Suivez NOAA 14 en temps réel avec AllMySat

Download on the App Store